Location: Luz Observatory
(34.5000°N, 117.2833°W)
Time: 13:00:03
(UTC-07:00)

Okean 3 Rocket - Visible Passes

Search period start: 21 August 2014 00:00
Search period end: 31 August 2014 00:00
Orbit: 617 x 646 km, 82.5° (Epoch: 21 August)

Date Brightness Start Highest point End Pass type
(mag) Time Alt. Az. Time Alt. Az. Time Alt. Az.
21 Aug 5.5 20:09:25 10° NE 20:11:28 13° ENE 20:13:05 11° E visible
21 Aug 4.5 21:45:29 10° NNW 21:49:50 46° W 21:50:32 42° WSW visible
22 Aug 4.7 20:29:13 10° NNE 20:33:04 27° ENE 20:34:43 21° ESE visible
22 Aug 5.7 22:07:33 10° NW 22:11:00 22° W 22:12:10 20° WSW visible
23 Aug 3.7 20:50:03 10° N 20:54:32 58° E 20:56:24 32° SSE visible
24 Aug 4.0 21:11:22 10° NNW 21:15:52 63° W 21:18:09 28° SSW visible
25 Aug 5.0 19:55:37 10° NNE 19:58:59 20° ENE 20:02:20 10° ESE visible
25 Aug 5.5 21:33:11 10° NNW 21:37:05 29° W 21:39:57 15° SW visible
26 Aug 4.0 20:16:10 10° N 20:20:30 42° E 20:24:23 12° SSE visible
26 Aug 6.5 21:55:58 10° WNW 21:58:10 14° W 22:00:22 10° WSW visible
27 Aug 3.6 20:37:19 10° N 20:41:53 86° W 20:46:21 10° S visible
28 Aug 5.0 20:58:56 10° NNW 21:03:08 38° W 21:07:18 10° SSW visible
29 Aug 4.4 19:42:23 10° NNE 19:46:26 31° ENE 19:50:27 10° SE visible
29 Aug 6.3 21:21:12 10° NW 21:24:16 18° W 21:27:19 10° SW visible
30 Aug 3.6 20:03:20 10° N 20:07:52 70° E 20:12:21 10° SSE visible
